Weather in Poplevino

Russia / Ryazan Oblast     53°47′34″N   40°05′23″E
temp.,
°C
wind,
m/s
gust,
m/s
humid.,
%
clouds,
%
prec.,
mm/h
press.,
hPa
HPBL,
m
7 march, sun
sun700:00−13w46910 0.0 101788
03:00−13wsw47920 0.0 1015108
06:00−12sw599227 0.0 1013184
09:00−8sw8168464 0.0 1009647
12:00−4sw101783100 0.2 10051060
15:00−3sw111892100 1.3 10001243
18:00−2sw101891100 1.1 9971157
21:00−2w101595100 2.3 995961
8 march, mon
mon800:00−4wnw71485100 0.8 997990
03:00−8wsw6158457 0.8 1000373
06:00−10wsw5138811 0.0 1000290
09:00−7wsw5118956 0.0 1000543
12:00−4wsw71085100 0.0 1001887
15:00−4w71182100 0.1 10021248
18:00−8wnw4108383 0.2 1004219
21:00−11wnw488941 0.2 1008137
9 march, tue
tue900:00−13nw34930 0.0 100944
03:00−15wnw349513 0.0 101138
06:00−16nw339594 0.0 101234
09:00−13nw369497 0.0 1013246
12:00−10nw468996 0.0 1015538
15:00−10nw468798 0.1 1016667
18:00−14nw3493100 0.0 101781
21:00−17nw459578 0.0 102083
10 march, wed
wed1000:00−19nnw359768 0.0 102184
03:00−22nw349774 0.0 102263
06:00−24nw349861 0.0 102462
09:00−22nnw369542 0.0 1026213
12:00−18nnw359043 0.0 1027343
15:00−16nnw358631 0.0 1027405
18:00−20nw23930 0.0 102720
21:00−22nw23910 0.0 102920
11 march, thu
thu1100:00−23wnw11930 0.0 102920
03:00−23sw12920 0.0 103020
06:00−24ssw22890 0.0 103020
09:00−20s248631 0.0 1030104
12:00−14ssw358383 0.0 1030256
15:00−11ssw588790 0.0 1028360
18:00−13s479159 0.0 1027112
21:00−15s5109330 0.0 1027168